Time,TemperatureF,DewpointF,PressureIn,WindDirection,WindDirectionDegrees,WindSpeedMPH,WindSpeedGustMPH,Humidity,HourlyPrecipIn,Conditions,Clouds,dailyrainin,SoftwareType,DateUTC
2013-04-27 00:01:00,43.0,19.0,30.35,North,0,0.0,2.0,38,0.00,,,0.00,,2013-04-27 07:01:00,
2013-04-27 00:11:00,43.0,19.0,30.35,North,0,0.0,2.0,38,0.00,,,0.00,,2013-04-27 07:11:00,
2013-04-27 00:21:00,40.0,18.0,30.35,North,0,0.0,2.0,41,0.00,,,0.00,,2013-04-27 07:21:00,
2013-04-27 00:31:00,39.0,18.0,30.35,North,0,0.0,2.0,43,0.00,,,0.00,,2013-04-27 07:31:00,
2013-04-27 00:41:00,39.0,18.0,30.35,North,0,0.0,2.0,43,0.00,,,0.00,,2013-04-27 07:41:00,
2013-04-27 00:52:00,37.0,18.0,30.35,North,0,0.0,2.0,46,0.00,,,0.00,,2013-04-27 07:52:00,
2013-04-27 01:01:00,36.0,18.0,30.35,North,0,0.0,2.0,47,0.00,,,0.00,,2013-04-27 08:01:00,
2013-04-27 01:11:00,36.0,18.0,30.35,North,0,0.0,2.0,47,0.00,,,0.00,,2013-04-27 08:11:00,
2013-04-27 01:21:00,36.0,19.0,30.34,North,0,0.0,1.0,49,0.00,,,0.00,,2013-04-27 08:21:00,
2013-04-27 01:33:00,34.0,18.0,30.34,North,0,0.0,0.0,51,0.00,,,0.00,,2013-04-27 08:33:00,
2013-04-27 01:41:00,34.0,18.0,30.34,North,0,0.0,0.0,51,0.00,,,0.00,,2013-04-27 08:41:00,
2013-04-27 01:51:00,33.0,17.0,30.34,North,0,0.0,0.0,52,0.00,,,0.00,,2013-04-27 08:51:00,
2013-04-27 02:01:00,32.0,17.0,30.34,North,0,0.0,0.0,54,0.00,,,0.00,,2013-04-27 09:01:00,
2013-04-27 02:11:00,32.0,17.0,30.34,North,0,0.0,0.0,54,0.00,,,0.00,,2013-04-27 09:11:00,
2013-04-27 02:21:00,31.0,17.0,30.34,North,0,0.0,0.0,56,0.00,,,0.00,,2013-04-27 09:21:00,
2013-04-27 02:33:00,31.0,18.0,30.34,North,0,0.0,0.0,57,0.00,,,0.00,,2013-04-27 09:33:00,
2013-04-27 02:42:00,31.0,18.0,30.34,North,0,0.0,0.0,57,0.00,,,0.00,,2013-04-27 09:42:00,
2013-04-27 02:53:00,31.0,18.0,30.34,North,0,0.0,0.0,57,0.00,,,0.00,,2013-04-27 09:53:00,
2013-04-27 03:02:00,30.0,18.0,30.32,North,0,0.0,0.0,60,0.00,,,0.00,,2013-04-27 10:02:00,
2013-04-27 03:12:00,30.0,18.0,30.32,North,0,0.0,0.0,60,0.00,,,0.00,,2013-04-27 10:12:00,
2013-04-27 03:22:00,30.0,19.0,30.32,North,0,0.0,0.0,62,0.00,,,0.00,,2013-04-27 10:22:00,
2013-04-27 03:32:00,29.0,18.0,30.32,North,0,0.0,0.0,62,0.00,,,0.00,,2013-04-27 10:32:00,
2013-04-27 03:42:00,29.0,18.0,30.32,North,0,0.0,0.0,62,0.00,,,0.00,,2013-04-27 10:42:00,
2013-04-27 03:52:00,29.0,18.0,30.32,North,0,0.0,0.0,63,0.00,,,0.00,,2013-04-27 10:52:00,
2013-04-27 04:02:00,29.0,18.0,30.33,North,0,0.0,0.0,62,0.00,,,0.00,,2013-04-27 11:02:00,
2013-04-27 04:11:00,29.0,18.0,30.33,North,0,0.0,0.0,63,0.00,,,0.00,,2013-04-27 11:11:00,
2013-04-27 04:21:00,29.0,18.0,30.33,North,0,0.0,0.0,63,0.00,,,0.00,,2013-04-27 11:21:00,
2013-04-27 04:31:00,28.0,18.0,30.34,North,0,0.0,0.0,65,0.00,,,0.00,,2013-04-27 11:31:00,
2013-04-27 04:41:00,28.0,18.0,30.34,North,0,0.0,0.0,65,0.00,,,0.00,,2013-04-27 11:41:00,
2013-04-27 04:52:00,28.0,18.0,30.34,North,0,0.0,0.0,65,0.00,,,0.00,,2013-04-27 11:52:00,
2013-04-27 05:01:00,28.0,19.0,30.34,North,0,0.0,0.0,68,0.00,,,0.00,,2013-04-27 12:01:00,
2013-04-27 05:11:00,28.0,19.0,30.34,North,0,0.0,0.0,68,0.00,,,0.00,,2013-04-27 12:11:00,
2013-04-27 05:21:00,28.0,18.0,30.32,North,0,0.0,0.0,67,0.00,,,0.00,,2013-04-27 12:21:00,
2013-04-27 05:32:00,28.0,19.0,30.32,North,0,0.0,0.0,68,0.00,,,0.00,,2013-04-27 12:32:00,
2013-04-27 05:42:00,28.0,19.0,30.32,North,0,0.0,0.0,68,0.00,,,0.00,,2013-04-27 12:42:00,
2013-04-27 05:52:00,28.0,20.0,30.32,North,0,0.0,0.0,70,0.00,,,0.00,,2013-04-27 12:52:00,
2013-04-27 06:01:00,28.0,20.0,30.33,North,0,0.0,0.0,70,0.00,,,0.00,,2013-04-27 13:01:00,
2013-04-27 06:11:00,28.0,20.0,30.33,North,0,0.0,0.0,70,0.00,,,0.00,,2013-04-27 13:11:00,
2013-04-27 06:21:00,28.0,20.0,30.33,North,0,0.0,0.0,70,0.00,,,0.00,,2013-04-27 13:21:00,
2013-04-27 06:32:00,29.0,20.0,30.34,North,0,0.0,0.0,68,0.00,,,0.00,,2013-04-27 13:32:00,
2013-04-27 06:41:00,29.0,20.0,30.34,North,0,0.0,0.0,68,0.00,,,0.00,,2013-04-27 13:41:00,
2013-04-27 06:52:00,29.0,20.0,30.34,North,0,0.0,0.0,68,0.00,,,0.00,,2013-04-27 13:52:00,
2013-04-27 07:02:00,33.0,23.0,30.35,North,0,0.0,0.0,66,0.00,,,0.00,,2013-04-27 14:02:00,
2013-04-27 07:31:00,42.0,24.0,30.34,North,0,0.0,2.0,49,0.00,,,0.00,,2013-04-27 14:31:00,
2013-04-27 07:41:00,42.0,24.0,30.34,North,0,0.0,2.0,49,0.00,,,0.00,,2013-04-27 14:41:00,
2013-04-27 07:52:00,46.0,25.0,30.34,North,0,0.0,2.0,43,0.00,,,0.00,,2013-04-27 14:52:00,
2013-04-27 08:01:00,46.0,25.0,30.34,North,0,0.0,2.0,43,0.00,,,0.00,,2013-04-27 15:01:00,
2013-04-27 08:21:00,46.0,25.0,30.34,North,0,0.0,2.0,43,0.00,,,0.00,,2013-04-27 15:21:00,
2013-04-27 08:33:00,60.0,9.0,30.34,NNE,13,12.0,16.0,13,0.00,,,0.00,,2013-04-27 15:33:00,
2013-04-27 09:02:00,62.0,11.0,30.35,NNE,23,10.0,16.0,13,0.00,,,0.00,,2013-04-27 16:02:00,
2013-04-27 09:13:00,62.0,11.0,30.35,NNE,23,10.0,16.0,13,0.00,,,0.00,,2013-04-27 16:13:00,
2013-04-27 09:52:00,62.0,11.0,30.35,NNW,331,9.0,19.0,13,0.00,,,0.00,,2013-04-27 16:52:00,
2013-04-27 10:02:00,63.0,10.0,30.35,NNE,26,11.0,16.0,12,0.00,,,0.00,,2013-04-27 17:02:00,
2013-04-27 10:11:00,63.0,10.0,30.35,NNE,26,11.0,16.0,12,0.00,,,0.00,,2013-04-27 17:11:00,
2013-04-27 10:22:00,63.0,10.0,30.34,North,359,5.0,16.0,12,0.00,,,0.00,,2013-04-27 17:22:00,
2013-04-27 10:31:00,63.0,10.0,30.34,North,359,5.0,16.0,12,0.00,,,0.00,,2013-04-27 17:31:00,
2013-04-27 10:42:00,63.0,10.0,30.34,North,359,5.0,16.0,12,0.00,,,0.00,,2013-04-27 17:42:00,
2013-04-27 10:53:00,63.0,10.0,30.34,North,359,5.0,16.0,12,0.00,,,0.00,,2013-04-27 17:53:00,
2013-04-27 11:02:00,65.0,9.0,30.34,NNE,30,9.0,17.0,11,0.00,,,0.00,,2013-04-27 18:02:00,
2013-04-27 11:11:00,65.0,9.0,30.34,NNE,30,9.0,17.0,11,0.00,,,0.00,,2013-04-27 18:11:00,
2013-04-27 11:22:00,64.0,8.0,30.34,North,358,1.0,10.0,11,0.00,,,0.00,,2013-04-27 18:22:00,
2013-04-27 11:32:00,65.0,7.0,30.34,ENE,71,6.0,12.0,10,0.00,,,0.00,,2013-04-27 18:32:00,
2013-04-27 11:41:00,65.0,7.0,30.34,ENE,71,6.0,12.0,10,0.00,,,0.00,,2013-04-27 18:41:00,
2013-04-27 11:52:00,65.0,9.0,30.33,SSE,154,5.0,11.0,11,0.00,,,0.00,,2013-04-27 18:52:00,
2013-04-27 12:01:00,68.0,9.0,30.32,NNE,21,5.0,11.0,10,0.00,,,0.00,,2013-04-27 19:01:00,
2013-04-27 12:11:00,68.0,9.0,30.32,NNE,21,5.0,11.0,10,0.00,,,0.00,,2013-04-27 19:11:00,
2013-04-27 12:21:00,68.0,9.0,30.32,NNE,21,5.0,11.0,10,0.00,,,0.00,,2013-04-27 19:21:00,
2013-04-27 12:32:00,67.0,9.0,30.31,ENE,68,9.0,18.0,10,0.00,,,0.00,,2013-04-27 19:32:00,
2013-04-27 12:41:00,67.0,9.0,30.31,ENE,68,9.0,18.0,10,0.00,,,0.00,,2013-04-27 19:41:00,
2013-04-27 12:53:00,67.0,9.0,30.30,SE,145,9.0,22.0,10,0.00,,,0.00,,2013-04-27 19:53:00,
2013-04-27 13:02:00,67.0,11.0,30.32,ESE,121,8.0,16.0,11,0.00,,,0.00,,2013-04-27 20:02:00,
2013-04-27 13:11:00,67.0,11.0,30.32,ESE,121,8.0,16.0,11,0.00,,,0.00,,2013-04-27 20:11:00,
2013-04-27 13:21:00,68.0,9.0,30.31,SSE,163,1.0,14.0,10,0.00,,,0.00,,2013-04-27 20:21:00,
2013-04-27 13:31:00,68.0,9.0,30.30,ENE,67,13.0,18.0,10,0.00,,,0.00,,2013-04-27 20:31:00,
2013-04-27 13:41:00,68.0,9.0,30.30,ENE,67,13.0,18.0,10,0.00,,,0.00,,2013-04-27 20:41:00,
2013-04-27 13:52:00,68.0,9.0,30.30,NNE,26,5.0,13.0,10,0.00,,,0.00,,2013-04-27 20:52:00,
2013-04-27 14:01:00,67.0,9.0,30.29,NNW,336,1.0,13.0,10,0.00,,,0.00,,2013-04-27 21:01:00,
2013-04-27 14:11:00,67.0,9.0,30.29,NNW,336,1.0,13.0,10,0.00,,,0.00,,2013-04-27 21:11:00,
2013-04-27 14:21:00,68.0,9.0,30.29,ESE,118,5.0,14.0,10,0.00,,,0.00,,2013-04-27 21:21:00,
2013-04-27 14:32:00,69.0,10.0,30.28,East,81,8.0,15.0,10,0.00,,,0.00,,2013-04-27 21:32:00,
2013-04-27 14:42:00,69.0,10.0,30.28,East,81,8.0,15.0,10,0.00,,,0.00,,2013-04-27 21:42:00,
2013-04-27 14:53:00,69.0,10.0,30.27,ENE,60,8.0,17.0,10,0.00,,,0.00,,2013-04-27 21:53:00,
2013-04-27 15:02:00,68.0,9.0,30.27,NE,37,5.0,16.0,10,0.00,,,0.00,,2013-04-27 22:02:00,
2013-04-27 15:12:00,68.0,9.0,30.27,NE,37,5.0,16.0,10,0.00,,,0.00,,2013-04-27 22:12:00,
2013-04-27 15:22:00,68.0,9.0,30.27,NE,37,5.0,16.0,10,0.00,,,0.00,,2013-04-27 22:22:00,
2013-04-27 15:32:00,69.0,10.0,30.26,NNE,30,6.0,17.0,10,0.00,,,0.00,,2013-04-27 22:32:00,
2013-04-27 15:42:00,69.0,10.0,30.26,NNE,30,6.0,17.0,10,0.00,,,0.00,,2013-04-27 22:42:00,
2013-04-27 15:52:00,70.0,11.0,30.25,East,93,9.0,16.0,10,0.00,,,0.00,,2013-04-27 22:52:00,
2013-04-27 16:02:00,70.0,11.0,30.25,East,93,9.0,16.0,10,0.00,,,0.00,,2013-04-27 23:02:00,
2013-04-27 16:11:00,70.0,11.0,30.25,East,93,9.0,16.0,10,0.00,,,0.00,,2013-04-27 23:11:00,
2013-04-27 16:22:00,69.0,8.0,30.25,NE,52,11.0,18.0,9,0.00,,,0.00,,2013-04-27 23:22:00,
2013-04-27 16:32:00,69.0,10.0,30.24,ENE,67,8.0,16.0,10,0.00,,,0.00,,2013-04-27 23:32:00,
2013-04-27 16:42:00,69.0,10.0,30.24,ENE,67,8.0,16.0,10,0.00,,,0.00,,2013-04-27 23:42:00,
2013-04-27 16:52:00,69.0,10.0,30.24,SSE,153,4.0,10.0,10,0.00,,,0.00,,2013-04-27 23:52:00,
2013-04-27 17:01:00,70.0,9.0,30.24,NNE,28,6.0,10.0,9,0.00,,,0.00,,2013-04-28 00:01:00,
2013-04-27 17:11:00,70.0,9.0,30.24,NNE,28,6.0,10.0,9,0.00,,,0.00,,2013-04-28 00:11:00,
2013-04-27 17:21:00,69.0,10.0,30.23,ENE,73,7.0,13.0,10,0.00,,,0.00,,2013-04-28 00:21:00,
2013-04-27 17:31:00,69.0,10.0,30.23,ENE,72,7.0,14.0,10,0.00,,,0.00,,2013-04-28 00:31:00,
2013-04-27 17:42:00,69.0,10.0,30.23,ENE,72,7.0,14.0,10,0.00,,,0.00,,2013-04-28 00:42:00,
2013-04-27 17:51:00,69.0,8.0,30.23,NNE,24,9.0,13.0,9,0.00,,,0.00,,2013-04-28 00:51:00,
2013-04-27 18:01:00,67.0,6.0,30.23,NE,41,7.0,13.0,9,0.00,,,0.00,,2013-04-28 01:01:00,
2013-04-27 18:11:00,67.0,6.0,30.23,NE,36,10.0,14.0,9,0.00,,,0.00,,2013-04-28 01:11:00,
2013-04-27 18:21:00,67.0,6.0,30.23,NE,36,10.0,14.0,9,0.00,,,0.00,,2013-04-28 01:21:00,
2013-04-27 18:31:00,67.0,6.0,30.23,ENE,67,6.0,14.0,9,0.00,,,0.00,,2013-04-28 01:31:00,
2013-04-27 18:41:00,67.0,6.0,30.23,ENE,67,6.0,14.0,9,0.00,,,0.00,,2013-04-28 01:41:00,
2013-04-27 18:52:00,66.0,3.0,30.23,ENE,74,10.0,15.0,8,0.00,,,0.00,,2013-04-28 01:52:00,
2013-04-27 19:21:00,63.0,3.0,30.24,NE,41,4.0,9.0,9,0.00,,,0.00,,2013-04-28 02:21:00,
2013-04-27 19:32:00,62.0,3.0,30.24,North,8,3.0,6.0,9,0.00,,,0.00,,2013-04-28 02:32:00,
2013-04-27 19:42:00,62.0,3.0,30.24,North,8,3.0,6.0,9,0.00,,,0.00,,2013-04-28 02:42:00,
2013-04-27 19:52:00,59.0,5.0,30.24,NNE,12,2.0,4.0,11,0.00,,,0.00,,2013-04-28 02:52:00,
2013-04-27 20:01:00,57.0,5.0,30.24,NNW,344,1.0,4.0,12,0.00,,,0.00,,2013-04-28 03:01:00,
2013-04-27 20:11:00,57.0,5.0,30.24,NNW,344,1.0,4.0,12,0.00,,,0.00,,2013-04-28 03:11:00,
2013-04-27 20:21:00,55.0,3.0,30.24,NNW,344,1.0,3.0,12,0.00,,,0.00,,2013-04-28 03:21:00,
2013-04-27 20:32:00,51.0,5.0,30.26,North,0,0.0,1.0,15,0.00,,,0.00,,2013-04-28 03:32:00,
2013-04-27 20:42:00,51.0,5.0,30.26,North,0,0.0,1.0,15,0.00,,,0.00,,2013-04-28 03:42:00,
2013-04-27 20:53:00,50.0,6.0,30.26,North,0,0.0,2.0,16,0.00,,,0.00,,2013-04-28 03:53:00,
2013-04-27 21:02:00,47.0,6.0,30.27,North,0,0.0,0.0,18,0.00,,,0.00,,2013-04-28 04:02:00,
2013-04-27 21:13:00,47.0,6.0,30.27,North,0,0.0,0.0,18,0.00,,,0.00,,2013-04-28 04:13:00,
2013-04-27 21:22:00,45.0,6.0,30.27,North,0,0.0,5.0,20,0.00,,,0.00,,2013-04-28 04:22:00,
2013-04-27 21:32:00,44.0,7.0,30.27,North,0,0.0,2.0,21,0.00,,,0.00,,2013-04-28 04:32:00,
2013-04-27 21:42:00,44.0,7.0,30.27,North,0,0.0,2.0,21,0.00,,,0.00,,2013-04-28 04:42:00,
2013-04-27 21:53:00,41.0,5.0,30.28,North,0,0.0,1.0,22,0.00,,,0.00,,2013-04-28 04:53:00,
2013-04-27 22:02:00,40.0,6.0,30.29,North,0,0.0,0.0,24,0.00,,,0.00,,2013-04-28 05:02:00,
2013-04-27 22:12:00,40.0,6.0,30.29,North,0,0.0,0.0,24,0.00,,,0.00,,2013-04-28 05:12:00,
2013-04-27 22:22:00,39.0,5.0,30.26,North,0,0.0,0.0,24,0.00,,,0.00,,2013-04-28 05:22:00,
2013-04-27 22:32:00,39.0,6.0,30.26,North,0,0.0,1.0,25,0.00,,,0.00,,2013-04-28 05:32:00,
2013-04-27 22:42:00,39.0,6.0,30.26,North,0,0.0,1.0,25,0.00,,,0.00,,2013-04-28 05:42:00,
2013-04-27 22:52:00,37.0,9.0,30.27,SW,229,1.0,2.0,31,0.00,,,0.00,,2013-04-28 05:52:00,
2013-04-27 23:01:00,36.0,6.0,30.27,North,0,0.0,2.0,28,0.00,,,0.00,,2013-04-28 06:01:00,
2013-04-27 23:12:00,36.0,6.0,30.27,North,0,0.0,2.0,28,0.00,,,0.00,,2013-04-28 06:12:00,
2013-04-27 23:21:00,35.0,5.0,30.27,North,0,0.0,0.0,28,0.00,,,0.00,,2013-04-28 06:21:00,
2013-04-27 23:32:00,34.0,5.0,30.27,North,0,0.0,0.0,29,0.00,,,0.00,,2013-04-28 06:32:00,
2013-04-27 23:41:00,34.0,5.0,30.27,North,0,0.0,0.0,29,0.00,,,0.00,,2013-04-28 06:41:00,
2013-04-27 23:51:00,34.0,5.0,30.27,North,0,0.0,0.0,29,0.00,,,0.00,,2013-04-28 06:51:00,